| time (UTC) | temp C | wind direction | speed KPH | gust KPH | rain 1hr cm | rain 24hr cm | rain mn cm | humidity % | barometer mb |
| 20260831043017 | 15 | 113 | 1.6 | 3.2 | 0.53 | 0.53 | 0.53 | 93 | 1014.3 |
| 20260831042517 | 19 | 90 | 12.9 | 14.5 | 0.00 | 0.51 | 0.51 | 35 | 1066.5 |
| 20260831042017 | 15 | 158 | 3.2 | 9.7 | 0.53 | 0.53 | 0.53 | 93 | 1014.4 |
| 20260831041537 | 20 | 93 | 11.3 | 14.5 | 0.00 | 0.51 | 0.51 | 36 | 1067.2 |
| 20260831041017 | 15 | 135 | 3.2 | 8.0 | 0.53 | 0.53 | 0.53 | 93 | 1014.6 |
| 20260831040517 | 20 | 97 | 11.3 | 14.5 | 0.00 | 0.51 | 0.51 | 36 | 1067.9 |
| 20260831040017 | 15 | 113 | 4.8 | 9.7 | 0.51 | 0.51 | 0.51 | 93 | 1014.5 |
| 20260831035517 | 20 | 100 | 11.3 | 14.5 | 0.00 | 0.51 | 0.51 | 37 | 1068.6 |
| 20260831035017 | 14 | 158 | 3.2 | 8.0 | 0.43 | 0.43 | 0.43 | 93 | 1014.7 |
| 20260831034517 | 20 | 104 | 11.3 | 14.5 | 0.00 | 0.51 | 0.51 | 37 | 1069.3 |
| 20260831034037 | 14 | 203 | 9.7 | 16.1 | 0.41 | 0.41 | 0.41 | 93 | 1015.1 |
| 20260831033517 | 20 | 107 | 11.3 | 12.9 | 0.00 | 0.51 | 0.51 | 38 | 1070.0 |
| 20260831033017 | 13 | 180 | 9.7 | 25.7 | 0.00 | 0.00 | 0.00 | 92 | 1013.7 |
| 20260831032517 | 20 | 111 | 11.3 | 12.9 | 0.00 | 0.51 | 0.51 | 38 | 1070.7 |
| 20260831032016 | 13 | 0.0 | 0.0 | 0.00 | 0.00 | 0.00 | 92 | 1012.9 | |
| 20260831031517 | 21 | 114 | 11.3 | 12.9 | 0.00 | 0.51 | 0.51 | 39 | 1071.4 |
| 20260831031016 | 13 | 0.0 | 0.0 | 0.00 | 0.00 | 0.00 | 92 | 1012.9 | |
| 20260831030517 | 21 | 118 | 11.3 | 12.9 | 0.00 | 0.51 | 0.51 | 40 | 1072.1 |
| 20260831030017 | 13 | 0.0 | 0.0 | 0.00 | 0.00 | 0.00 | 92 | 1012.8 | |
| 20260831025517 | 21 | 122 | 11.3 | 12.9 | 0.00 | 0.51 | 0.51 | 40 | 1072.9 |
| 20260831025017 | 12 | 0.0 | 0.0 | 0.00 | 0.00 | 0.00 | 92 | 1013.1 | |
| 20260831024517 | 21 | 126 | 11.3 | 12.9 | 0.00 | 0.51 | 0.51 | 41 | 1073.6 |
| 20260831024037 | 12 | 0.0 | 0.0 | 0.00 | 0.00 | 0.00 | 92 | 1013.4 | |
| 20260831023517 | 21 | 129 | 9.7 | 12.9 | 0.00 | 0.51 | 0.51 | 42 | 1074.4 |
| 20260831023016 | 12 | 0.0 | 0.0 | 0.00 | 0.00 | 0.00 | 92 | 1013.4 | |
| 20260831022617 | 21 | 133 | 9.7 | 12.9 | 0.00 | 0.51 | 0.51 | 42 | 1075.1 |
| 20260831022017 | 12 | 0.0 | 0.0 | 0.00 | 0.00 | 0.00 | 92 | 1013.7 | |
| 20260831021517 | 21 | 137 | 9.7 | 11.3 | 0.00 | 0.51 | 0.51 | 43 | 1075.9 |
| 20260831021037 | 12 | 0.0 | 0.0 | 0.00 | 0.00 | 0.00 | 92 | 1013.5 | |
| 20260831020516 | 21 | 141 | 9.7 | 11.3 | 0.00 | 0.51 | 0.51 | 43 | 1076.6 |
| 20260831020017 | 12 | 0.0 | 0.0 | 0.00 | 0.00 | 0.00 | 92 | 1013.5 | |
| 20260831015517 | 21 | 145 | 9.7 | 11.3 | 0.00 | 0.51 | 0.51 | 44 | 1077.4 |
| 20260831015016 | 12 | 0.0 | 0.0 | 0.00 | 0.00 | 0.00 | 91 | 1013.7 | |
| 20260831014517 | 21 | 148 | 9.7 | 11.3 | 0.03 | 0.51 | 0.51 | 45 | 1078.1 |
| 20260831014037 | 12 | 0.0 | 0.0 | 0.00 | 0.00 | 0.00 | 91 | 1013.7 | |
| 20260831013517 | 21 | 152 | 9.7 | 11.3 | 0.05 | 0.51 | 0.51 | 45 | 1078.9 |
| 20260831013016 | 12 | 0.0 | 0.0 | 0.00 | 0.00 | 0.00 | 91 | 1014.1 | |
| 20260831012517 | 20 | 156 | 9.7 | 11.3 | 0.08 | 0.51 | 0.51 | 46 | 1079.7 |
| 20260831012036 | 12 | 0.0 | 0.0 | 0.00 | 0.00 | 0.00 | 91 | 1014.1 | |
| 20260831011517 | 20 | 160 | 9.7 | 11.3 | 0.13 | 0.51 | 0.51 | 47 | 1080.4 |
| 20260831011016 | 12 | 0.0 | 0.0 | 0.00 | 0.00 | 0.00 | 91 | 1014.0 | |
| 20260831010517 | 20 | 164 | 8.0 | 11.3 | 0.15 | 0.51 | 0.51 | 47 | 1081.2 |
| 20260831010016 | 12 | 0.0 | 0.0 | 0.00 | 0.00 | 0.00 | 91 | 1014.4 | |
| 20260831005517 | 20 | 168 | 8.0 | 9.7 | 0.18 | 0.51 | 0.51 | 48 | 1082.0 |
| 20260831005016 | 12 | 0.0 | 0.0 | 0.00 | 0.00 | 0.00 | 91 | 1014.4 | |
| 20260831004517 | 20 | 172 | 8.0 | 9.7 | 0.18 | 0.51 | 0.48 | 49 | 1082.8 |
| 20260831004016 | 12 | 0.0 | 0.0 | 0.00 | 0.00 | 0.00 | 90 | 1014.6 | |
| 20260831003517 | 20 | 176 | 8.0 | 9.7 | 0.18 | 0.51 | 0.46 | 49 | 1083.5 |
| 20260831003016 | 12 | 0.0 | 0.0 | 0.00 | 0.00 | 0.00 | 90 | 1014.5 | |
| 20260831002537 | 19 | 180 | 8.0 | 9.7 | 0.18 | 0.51 | 0.43 | 50 | 1084.3 |
| 20260831002016 | 13 | 0.0 | 0.0 | 0.00 | 0.00 | 0.00 | 90 | 1014.7 | |
| 20260831001517 | 19 | 184 | 8.0 | 9.7 | 0.15 | 0.51 | 0.38 | 51 | 1085.1 |
| 20260831001016 | 13 | 0.0 | 0.0 | 0.00 | 0.00 | 0.00 | 90 | 1014.8 | |
| 20260831000517 | 18 | 187 | 8.0 | 9.7 | 0.15 | 0.51 | 0.36 | 51 | 1085.9 |
| 20260831000036 | 13 | 0.0 | 0.0 | 0.00 | 0.00 | 0.00 | 90 | 1015.0 | |
| 20260830235537 | 18 | 191 | 8.0 | 9.7 | 0.15 | 0.51 | 0.33 | 52 | 1086.6 |
| 20260830235036 | 13 | 0.0 | 0.0 | 0.00 | 0.00 | 0.00 | 90 | 1014.9 | |
| 20260830234517 | 18 | 195 | 8.0 | 9.7 | 0.18 | 0.51 | 0.30 | 53 | 1087.4 |
| 20260830234016 | 13 | 0.0 | 0.0 | 0.00 | 0.00 | 0.00 | 89 | 1014.8 | |
| 20260830233537 | 18 | 199 | 6.4 | 8.0 | 0.18 | 0.51 | 0.28 | 53 | 1088.2 |
| 20260830233016 | 13 | 0.0 | 0.0 | 0.00 | 0.00 | 0.00 | 89 | 1014.8 | |
| 20260830232517 | 17 | 203 | 6.4 | 8.0 | 0.18 | 0.51 | 0.25 | 54 | 1089.0 |
| 20260830232016 | 13 | 0.0 | 0.0 | 0.00 | 0.00 | 0.00 | 89 | 1015.0 | |
| 20260830231517 | 17 | 207 | 6.4 | 8.0 | 0.18 | 0.51 | 0.23 | 55 | 1089.7 |
| 20260830231016 | 13 | 0.0 | 0.0 | 0.00 | 0.00 | 0.00 | 89 | 1015.1 | |
| 20260830230517 | 17 | 211 | 6.4 | 8.0 | 0.18 | 0.51 | 0.20 | 55 | 1090.5 |
| 20260830230016 | 13 | 0.0 | 0.0 | 0.00 | 0.00 | 0.00 | 88 | 1015.3 | |
| 20260830225517 | 16 | 215 | 6.4 | 8.0 | 0.18 | 0.51 | 0.18 | 56 | 1091.3 |
| 20260830225016 | 14 | 0.0 | 0.0 | 0.00 | 0.00 | 0.00 | 88 | 1015.2 | |
| 20260830224517 | 16 | 219 | 6.4 | 8.0 | 0.13 | 0.51 | 0.13 | 56 | 1092.0 |
| 20260830224016 | 14 | 0.0 | 0.0 | 0.00 | 0.00 | 0.00 | 88 | 1015.2 | |
| 20260830223517 | 16 | 222 | 6.4 | 8.0 | 0.10 | 0.51 | 0.10 | 57 | 1092.8 |
| 20260830223016 | 14 | 0.0 | 0.0 | 0.00 | 0.00 | 0.00 | 87 | 1015.3 | |
| 20260830222517 | 15 | 226 | 6.4 | 6.4 | 0.08 | 0.51 | 0.08 | 58 | 1093.5 |
| 20260830222016 | 14 | 0.0 | 0.0 | 0.00 | 0.00 | 0.00 | 86 | 1015.3 | |
| 20260830221517 | 15 | 230 | 6.4 | 6.4 | 0.05 | 0.51 | 0.05 | 58 | 1094.3 |
| 20260830221136 | 15 | 0.0 | 0.0 | 0.00 | 0.00 | 0.00 | 86 | 1015.3 | |
| 20260830220517 | 15 | 234 | 6.4 | 6.4 | 0.03 | 0.51 | 0.03 | 59 | 1095.0 |
| 20260830220016 | 15 | 0.0 | 0.0 | 0.00 | 0.00 | 0.00 | 85 | 1015.2 | |
| 20260830215517 | 14 | 238 | 4.8 | 6.4 | 0.00 | 0.51 | 0.51 | 60 | 1095.8 |
| 20260830215019 | 15 | 0.0 | 0.0 | 0.00 | 0.00 | 0.00 | 84 | 1015.2 | |
| 20260830214517 | 13 | 241 | 4.8 | 6.4 | 0.00 | 0.51 | 0.51 | 60 | 1096.5 |
| 20260830214037 | 16 | 0.0 | 0.0 | 0.00 | 0.00 | 0.00 | 83 | 1015.2 | |
| 20260830213517 | 13 | 245 | 4.8 | 6.4 | 0.00 | 0.51 | 0.51 | 61 | 1097.2 |
| 20260830213017 | 16 | 0.0 | 0.0 | 0.00 | 0.00 | 0.00 | 83 | 1015.3 | |
| 20260830212518 | 12 | 249 | 4.8 | 6.4 | 0.00 | 0.51 | 0.51 | 61 | 1098.0 |
| 20260830212017 | 16 | 0.0 | 0.0 | 0.00 | 0.00 | 0.00 | 82 | 1015.3 | |
| 20260830211517 | 12 | 252 | 4.8 | 6.4 | 0.00 | 0.51 | 0.51 | 62 | 1098.7 |
| 20260830211017 | 16 | 180 | 1.6 | 3.2 | 0.00 | 0.00 | 0.00 | 82 | 1015.4 |
| 20260830210517 | 12 | 256 | 4.8 | 6.4 | 0.00 | 0.51 | 0.51 | 63 | 1099.4 |
| 20260830210017 | 17 | 0.0 | 1.6 | 0.00 | 0.00 | 0.00 | 81 | 1015.4 | |
| 20260830205537 | 11 | 259 | 4.8 | 4.8 | 0.00 | 0.51 | 0.51 | 63 | 1100.1 |
| 20260830205017 | 17 | 0.0 | 0.0 | 0.00 | 0.00 | 0.00 | 80 | 1015.3 | |
| 20260830204517 | 11 | 263 | 4.8 | 4.8 | 0.00 | 0.51 | 0.51 | 64 | 1100.8 |
| 20260830204017 | 17 | 180 | 1.6 | 4.8 | 0.00 | 0.00 | 0.00 | 80 | 1015.2 |
| 20260830203537 | 10 | 266 | 4.8 | 4.8 | 0.00 | 0.51 | 0.51 | 64 | 1101.5 |
| 20260830203037 | 17 | 180 | 3.2 | 4.8 | 0.00 | 0.00 | 0.00 | 79 | 1015.3 |
| 20260830202517 | 10 | 270 | 4.8 | 4.8 | 0.00 | 0.51 | 0.51 | 65 | 1102.1 |
| 20260830202057 | 17 | 180 | 3.2 | 6.4 | 0.00 | 0.00 | 0.00 | 79 | 1015.3 |
| 20260830201517 | 9 | 273 | 3.2 | 4.8 | 0.00 | 0.51 | 0.51 | 66 | 1102.8 |
| 20260830201017 | 18 | 180 | 3.2 | 6.4 | 0.00 | 0.00 | 0.00 | 79 | 1015.5 |
| 20260830200517 | 8 | 276 | 3.2 | 4.8 | 0.00 | 0.51 | 0.51 | 66 | 1103.5 |
| 20260830200017 | 18 | 180 | 3.2 | 4.8 | 0.00 | 0.00 | 0.00 | 78 | 1015.6 |
| 20260830195517 | 8 | 280 | 3.2 | 4.8 | 0.00 | 0.51 | 0.51 | 67 | 1104.1 |
| 20260830195017 | 18 | 180 | 3.2 | 3.2 | 0.00 | 0.00 | 0.00 | 78 | 1015.5 |
| 20260830194517 | 8 | 283 | 3.2 | 4.8 | 0.00 | 0.51 | 0.51 | 67 | 1104.8 |
| 20260830194017 | 18 | 180 | 3.2 | 4.8 | 0.00 | 0.00 | 0.00 | 77 | 1015.5 |
| 20260830193517 | 7 | 286 | 3.2 | 3.2 | 0.00 | 0.51 | 0.51 | 68 | 1105.4 |
| 20260830193016 | 18 | 180 | 1.6 | 3.2 | 0.00 | 0.00 | 0.00 | 76 | 1015.3 |
| 20260830192517 | 7 | 289 | 3.2 | 3.2 | 0.00 | 0.51 | 0.51 | 68 | 1106.0 |
| 20260830192017 | 19 | 180 | 1.6 | 4.8 | 0.00 | 0.00 | 0.00 | 76 | 1015.4 |
| 20260830191517 | 6 | 292 | 3.2 | 3.2 | 0.00 | 0.51 | 0.51 | 69 | 1106.6 |
| 20260830191017 | 19 | 180 | 3.2 | 6.4 | 0.00 | 0.00 | 0.00 | 75 | 1015.4 |
| 20260830190517 | 6 | 295 | 3.2 | 3.2 | 0.00 | 0.51 | 0.51 | 69 | 1107.2 |
| 20260830190017 | 19 | 180 | 3.2 | 3.2 | 0.00 | 0.00 | 0.00 | 74 | 1015.3 |
| 20260830185537 | 5 | 298 | 3.2 | 3.2 | 0.00 | 0.51 | 0.51 | 70 | 1107.8 |
| 20260830185016 | 20 | 180 | 1.6 | 3.2 | 0.00 | 0.00 | 0.00 | 73 | 1015.3 |
| 20260830184517 | 5 | 301 | 3.2 | 3.2 | 0.00 | 0.51 | 0.51 | 70 | 1108.4 |
| 20260830184017 | 20 | 180 | 1.6 | 4.8 | 0.00 | 0.00 | 0.00 | 73 | 1015.1 |
| 20260830183517 | 5 | 304 | 3.2 | 3.2 | 0.00 | 0.51 | 0.51 | 71 | 1109.0 |
| 20260830183036 | 20 | 180 | 1.6 | 3.2 | 0.00 | 0.00 | 0.00 | 72 | 1015.1 |
| 20260830182517 | 4 | 307 | 1.6 | 3.2 | 0.00 | 0.51 | 0.51 | 71 | 1109.5 |
| 20260830182016 | 20 | 180 | 3.2 | 4.8 | 0.00 | 0.00 | 0.00 | 71 | 1014.9 |
| 20260830181517 | 3 | 310 | 1.6 | 3.2 | 0.00 | 0.51 | 0.51 | 72 | 1110.1 |
| 20260830181016 | 21 | 180 | 3.2 | 4.8 | 0.00 | 0.00 | 0.00 | 69 | 1014.9 |
| 20260830180517 | 3 | 312 | 1.6 | 3.2 | 0.00 | 0.51 | 0.51 | 72 | 1110.6 |
| 20260830180016 | 21 | 180 | 3.2 | 6.4 | 0.00 | 0.00 | 0.00 | 69 | 1014.8 |
| 20260830175517 | 3 | 315 | 1.6 | 3.2 | 0.00 | 0.51 | 0.51 | 73 | 1111.1 |
| 20260830175036 | 21 | 180 | 3.2 | 6.4 | 0.00 | 0.00 | 0.00 | 68 | 1014.7 |
| 20260830174517 | 2 | 318 | 1.6 | 1.6 | 0.00 | 0.51 | 0.51 | 73 | 1111.6 |
| 20260830174016 | 22 | 180 | 3.2 | 4.8 | 0.00 | 0.00 | 0.00 | 66 | 1014.7 |
| 20260830173517 | 2 | 320 | 1.6 | 1.6 | 0.00 | 0.51 | 0.51 | 73 | 1112.1 |
| 20260830173037 | 22 | 180 | 3.2 | 8.0 | 0.00 | 0.00 | 0.00 | 65 | 1014.7 |
| 20260830172517 | 2 | 323 | 1.6 | 1.6 | 0.00 | 0.51 | 0.51 | 74 | 1112.6 |
| 20260830172017 | 22 | 225 | 4.8 | 8.0 | 0.00 | 0.00 | 0.00 | 64 | 1014.6 |
| 20260830171517 | 1 | 325 | 1.6 | 1.6 | 0.00 | 0.51 | 0.51 | 74 | 1113.1 |
| 20260830171016 | 22 | 225 | 8.0 | 11.3 | 0.00 | 0.00 | 0.00 | 63 | 1014.6 |
| 20260830170517 | 1 | 327 | 1.6 | 1.6 | 0.00 | 0.51 | 0.51 | 75 | 1113.5 |
| 20260830170016 | 22 | 225 | 8.0 | 17.7 | 0.00 | 0.00 | 0.00 | 63 | 1014.6 |
| 20260830165517 | 1 | 329 | 1.6 | 1.6 | 0.00 | 0.51 | 0.51 | 75 | 1114.0 |
| 20260830165016 | 23 | 225 | 4.8 | 9.7 | 0.00 | 0.00 | 0.00 | 63 | 1014.5 |
| 20260830164537 | 1 | 332 | 1.6 | 1.6 | 0.00 | 0.51 | 0.51 | 75 | 1114.4 |
| 20260830164017 | 23 | 203 | 8.0 | 14.5 | 0.00 | 0.00 | 0.00 | 62 | 1014.7 |
| 20260830163517 | 0 | 334 | 1.6 | 1.6 | 0.00 | 0.51 | 0.51 | 76 | 1114.8 |
| 20260830163016 | 23 | 225 | 8.0 | 16.1 | 0.00 | 0.00 | 0.00 | 62 | 1014.6 |
| 20260830162517 | 0 | 336 | 1.6 | 1.6 | 0.00 | 0.51 | 0.51 | 76 | 1115.2 |
| 20260830162057 | 23 | 225 | 8.0 | 14.5 | 0.00 | 0.00 | 0.00 | 61 | 1014.8 |
| 20260830161517 | 0 | 338 | 1.6 | 1.6 | 0.00 | 0.51 | 0.51 | 76 | 1115.6 |
| 20260830161016 | 23 | 225 | 9.7 | 14.5 | 0.00 | 0.00 | 0.00 | 61 | 1014.8 |
| 20260830160517 | 0 | 339 | 1.6 | 1.6 | 0.00 | 0.51 | 0.51 | 77 | 1115.9 |
| 20260830160016 | 23 | 203 | 11.3 | 19.3 | 0.00 | 0.00 | 0.00 | 60 | 1014.7 |
| 20260830155517 | 0 | 341 | 1.6 | 1.6 | 0.00 | 0.51 | 0.51 | 77 | 1116.3 |
| 20260830155016 | 23 | 203 | 9.7 | 17.7 | 0.00 | 0.00 | 0.00 | 58 | 1014.7 |
| 20260830154517 | 0 | 343 | 0.0 | 1.6 | 0.00 | 0.51 | 0.51 | 77 | 1116.6 |
| 20260830154016 | 24 | 203 | 8.0 | 16.1 | 0.00 | 0.00 | 0.00 | 58 | 1014.9 |
| 20260830153517 | 0 | 345 | 0.0 | 1.6 | 0.00 | 0.51 | 0.51 | 77 | 1116.9 |
| 20260830153016 | 24 | 225 | 12.9 | 22.5 | 0.00 | 0.00 | 0.00 | 58 | 1015.0 |
| 20260830152517 | 0 | 346 | 0.0 | 0.0 | 0.00 | 0.51 | 0.51 | 78 | 1117.3 |
| 20260830152016 | 24 | 225 | 9.7 | 20.9 | 0.00 | 0.00 | 0.00 | 58 | 1014.9 |
| 20260830151537 | -1 | 348 | 0.0 | 0.0 | 0.00 | 0.51 | 0.51 | 78 | 1117.5 |
| 20260830151016 | 24 | 203 | 12.9 | 19.3 | 0.00 | 0.00 | 0.00 | 57 | 1014.8 |
| 20260830150537 | -1 | 349 | 0.0 | 0.0 | 0.00 | 0.51 | 0.51 | 78 | 1117.8 |
| 20260830150016 | 24 | 203 | 11.3 | 22.5 | 0.00 | 0.00 | 0.00 | 57 | 1014.9 |
| 20260830145517 | -1 | 350 | 0.0 | 0.0 | 0.00 | 0.51 | 0.51 | 78 | 1118.1 |
| 20260830145016 | 24 | 203 | 9.7 | 17.7 | 0.00 | 0.00 | 0.00 | 56 | 1014.9 |
| 20260830144517 | -1 | 352 | 0.0 | 0.0 | 0.00 | 0.51 | 0.51 | 79 | 1118.3 |
| 20260830144036 | 25 | 203 | 11.3 | 24.1 | 0.00 | 0.00 | 0.00 | 55 | 1015.0 |
| 20260830143537 | -1 | 353 | 0.0 | 0.0 | 0.00 | 0.51 | 0.51 | 79 | 1118.5 |
| 20260830143016 | 25 | 225 | 11.3 | 24.1 | 0.00 | 0.00 | 0.00 | 56 | 1015.0 |
| 20260830142537 | -1 | 354 | 0.0 | 0.0 | 0.00 | 0.51 | 0.51 | 79 | 1118.8 |
| 20260830142036 | 25 | 203 | 14.5 | 27.4 | 0.00 | 0.00 | 0.00 | 54 | 1015.0 |
| 20260830141517 | -1 | 355 | 0.0 | 0.0 | 0.00 | 0.51 | 0.51 | 79 | 1119.0 |
| 20260830141016 | 25 | 203 | 14.5 | 24.1 | 0.00 | 0.00 | 0.00 | 53 | 1015.0 |
| 20260830140517 | -1 | 356 | 0.0 | 0.0 | 0.00 | 0.51 | 0.51 | 79 | 1119.1 |
| 20260830140016 | 25 | 203 | 12.9 | 22.5 | 0.00 | 0.00 | 0.00 | 54 | 1014.9 |
| 20260830135517 | -1 | 356 | 0.0 | 0.0 | 0.00 | 0.51 | 0.51 | 79 | 1119.3 |
| 20260830135016 | 25 | 225 | 12.9 | 20.9 | 0.00 | 0.00 | 0.00 | 52 | 1014.9 |
| 20260830134517 | -1 | 357 | 0.0 | 0.0 | 0.00 | 0.51 | 0.51 | 80 | 1119.4 |
| 20260830134036 | 25 | 225 | 12.9 | 24.1 | 0.00 | 0.00 | 0.00 | 53 | 1015.1 |
| 20260830133517 | -1 | 358 | 0.0 | 0.0 | 0.00 | 0.51 | 0.51 | 80 | 1119.6 |
| 20260830133016 | 25 | 225 | 9.7 | 17.7 | 0.00 | 0.00 | 0.00 | 54 | 1015.2 |
| 20260830132517 | 0 | 358 | 0.0 | 0.0 | 0.00 | 0.51 | 0.51 | 80 | 1119.7 |
| 20260830132016 | 25 | 248 | 11.3 | 22.5 | 0.00 | 0.00 | 0.00 | 53 | 1015.2 |
| 20260830131537 | 0 | 359 | 0.0 | 0.0 | 0.00 | 0.51 | 0.51 | 80 | 1119.8 |
| 20260830131036 | 24 | 225 | 14.5 | 29.0 | 0.00 | 0.00 | 0.00 | 53 | 1015.3 |
| 20260830130537 | 0 | 359 | 0.0 | 0.0 | 0.00 | 0.51 | 0.51 | 80 | 1119.8 |
| 20260830130036 | 25 | 225 | 12.9 | 25.7 | 0.00 | 0.00 | 0.00 | 53 | 1015.3 |
| 20260830125517 | 0 | 360 | 0.0 | 0.0 | 0.00 | 0.51 | 0.51 | 80 | 1119.9 |
| 20260830125016 | 24 | 248 | 14.5 | 25.7 | 0.00 | 0.00 | 0.00 | 53 | 1015.4 |
| 20260830124517 | 0 | 360 | 0.0 | 0.0 | 0.00 | 0.51 | 0.51 | 80 | 1120.0 |
| 20260830124016 | 25 | 203 | 16.1 | 25.7 | 0.00 | 0.00 | 0.00 | 54 | 1015.4 |
| 20260830123518 | 0 | 360 | 0.0 | 0.0 | 0.00 | 0.51 | 0.51 | 80 | 1120.0 |
| 20260830123016 | 23 | 203 | 9.7 | 17.7 | 0.00 | 0.00 | 0.00 | 58 | 1015.3 |
| 20260830122517 | 0 | 360 | 0.0 | 0.0 | 0.00 | 0.51 | 0.51 | 80 | 1120.0 |
| 20260830122016 | 23 | 225 | 12.9 | 24.1 | 0.00 | 0.00 | 0.00 | 55 | 1015.5 |
| 20260830121515 | 13 | 320 | 1.6 | 1.6 | 0.00 | 0.51 | 0.51 | 73 | 1112.0 |
| 20260830121016 | 23 | 225 | 9.7 | 17.7 | 0.00 | 0.00 | 0.00 | 58 | 1015.5 |
| 20260830120515 | 13 | 317 | 1.6 | 1.6 | 0.00 | 0.51 | 0.51 | 73 | 1111.5 |
| 20260830120036 | 23 | 203 | 12.9 | 20.9 | 0.00 | 0.00 | 0.00 | 56 | 1015.4 |
| 20260830115516 | 14 | 315 | 1.6 | 3.2 | 0.00 | 0.51 | 0.51 | 72 | 1111.0 |
| 20260830115015 | 23 | 225 | 12.9 | 19.3 | 0.00 | 0.00 | 0.00 | 57 | 1015.5 |
| 20260830114515 | 15 | 312 | 1.6 | 3.2 | 0.00 | 0.51 | 0.51 | 72 | 1110.5 |
| 20260830114038 | 22 | 225 | 11.3 | 19.3 | 0.00 | 0.00 | 0.00 | 60 | 1015.6 |
| 20260830113515 | 15 | 309 | 1.6 | 3.2 | 0.00 | 0.51 | 0.51 | 72 | 1110.0 |
| 20260830113017 | 22 | 270 | 14.5 | 22.5 | 0.00 | 0.00 | 0.00 | 59 | 1015.5 |
| 20260830112515 | 15 | 307 | 1.6 | 3.2 | 0.00 | 0.51 | 0.51 | 71 | 1109.4 |
| 20260830112018 | 22 | 248 | 14.5 | 22.5 | 0.00 | 0.00 | 0.00 | 60 | 1015.5 |
| 20260830111515 | 16 | 304 | 3.2 | 3.2 | 0.00 | 0.51 | 0.51 | 71 | 1108.9 |
| 20260830111018 | 22 | 248 | 12.9 | 25.7 | 0.00 | 0.00 | 0.00 | 59 | 1015.4 |
| 20260830110515 | 16 | 301 | 3.2 | 3.2 | 0.00 | 0.51 | 0.51 | 70 | 1108.3 |
| 20260830110017 | 23 | 203 | 12.9 | 24.1 | 0.00 | 0.00 | 0.00 | 56 | 1015.7 |
| 20260830105515 | 16 | 298 | 3.2 | 3.2 | 0.00 | 0.51 | 0.51 | 70 | 1107.7 |
| 20260830105038 | 22 | 270 | 16.1 | 27.4 | 0.00 | 0.00 | 0.00 | 60 | 1015.6 |
| 20260830104515 | 17 | 295 | 3.2 | 3.2 | 0.00 | 0.51 | 0.51 | 69 | 1107.1 |
| 20260830104037 | 22 | 225 | 11.3 | 17.7 | 0.00 | 0.00 | 0.00 | 61 | 1015.7 |
| 20260830103535 | 17 | 292 | 3.2 | 3.2 | 0.00 | 0.51 | 0.51 | 69 | 1106.5 |
| 20260830103017 | 22 | 225 | 12.9 | 22.5 | 0.00 | 0.00 | 0.00 | 59 | 1015.7 |
| 20260830102515 | 17 | 289 | 3.2 | 3.2 | 0.00 | 0.51 | 0.51 | 68 | 1105.9 |
| 20260830102016 | 22 | 225 | 14.5 | 25.7 | 0.00 | 0.00 | 0.00 | 59 | 1015.7 |
| 20260830101515 | 18 | 286 | 3.2 | 4.8 | 0.00 | 0.51 | 0.51 | 68 | 1105.3 |
| 20260830101017 | 22 | 203 | 14.5 | 29.0 | 0.00 | 0.00 | 0.00 | 59 | 1015.8 |
| 20260830100515 | 18 | 282 | 3.2 | 4.8 | 0.00 | 0.51 | 0.51 | 67 | 1104.7 |
| 20260830100017 | 22 | 225 | 16.1 | 30.6 | 0.00 | 0.00 | 0.00 | 61 | 1015.7 |
| 20260830095535 | 18 | 279 | 3.2 | 4.8 | 0.00 | 0.51 | 0.51 | 67 | 1104.0 |
| 20260830095517 | 22 | 225 | 12.9 | 20.9 | 0.00 | 0.00 | 0.00 | 62 | 1015.9 |
| 20260830094517 | 22 | 225 | 12.9 | 19.3 | 0.00 | 0.00 | 0.00 | 63 | 1015.9 |
| 20260830094515 | 19 | 276 | 3.2 | 4.8 | 0.00 | 0.51 | 0.51 | 66 | 1103.4 |
| 20260830093517 | 22 | 225 | 12.9 | 19.3 | 0.00 | 0.00 | 0.00 | 63 | 1016.0 |
| 20260830092517 | 21 | 225 | 12.9 | 24.1 | 0.00 | 0.00 | 0.00 | 64 | 1015.9 |
| 20260830091536 | 20 | 266 | 4.8 | 4.8 | 0.00 | 0.51 | 0.51 | 64 | 1101.4 |
| 20260830091517 | 21 | 225 | 14.5 | 27.4 | 0.00 | 0.00 | 0.00 | 63 | 1015.8 |
| 20260830090535 | 20 | 262 | 4.8 | 4.8 | 0.00 | 0.51 | 0.51 | 64 | 1100.7 |
| 20260830090517 | 22 | 203 | 12.9 | 20.9 | 0.00 | 0.00 | 0.00 | 64 | 1016.1 |
| 20260830085517 | 22 | 225 | 11.3 | 20.9 | 0.00 | 0.00 | 0.00 | 65 | 1016.0 |
| 20260830085515 | 20 | 259 | 4.8 | 4.8 | 0.00 | 0.51 | 0.51 | 63 | 1100.0 |
| 20260830084517 | 21 | 225 | 12.9 | 19.3 | 0.00 | 0.00 | 0.00 | 66 | 1015.9 |
| 20260830084515 | 20 | 255 | 4.8 | 6.4 | 0.00 | 0.51 | 0.51 | 63 | 1099.3 |
| 20260830083517 | 21 | 225 | 12.9 | 19.3 | 0.00 | 0.00 | 0.00 | 67 | 1015.9 |
| 20260830083515 | 20 | 252 | 4.8 | 6.4 | 0.00 | 0.51 | 0.51 | 62 | 1098.6 |
| 20260830082517 | 21 | 225 | 9.7 | 17.7 | 0.00 | 0.00 | 0.00 | 68 | 1015.9 |
| 20260830082515 | 20 | 248 | 4.8 | 6.4 | 0.00 | 0.51 | 0.51 | 61 | 1097.8 |
| 20260830081517 | 21 | 225 | 11.3 | 17.7 | 0.00 | 0.00 | 0.00 | 67 | 1015.7 |
| 20260830081515 | 21 | 244 | 4.8 | 6.4 | 0.00 | 0.51 | 0.51 | 61 | 1097.1 |
| 20260830080517 | 21 | 180 | 12.9 | 30.6 | 0.00 | 0.00 | 0.00 | 67 | 1015.9 |
| 20260830080515 | 21 | 241 | 4.8 | 6.4 | 0.00 | 0.51 | 0.51 | 60 | 1096.4 |
| 20260830075539 | 21 | 225 | 6.4 | 14.5 | 0.00 | 0.00 | 0.00 | 69 | 1015.7 |
| 20260830075515 | 21 | 237 | 4.8 | 6.4 | 0.00 | 0.51 | 0.51 | 59 | 1095.7 |
| 20260830074517 | 20 | 180 | 11.3 | 20.9 | 0.00 | 0.00 | 0.00 | 71 | 1015.7 |
| 20260830074515 | 21 | 233 | 6.4 | 6.4 | 0.00 | 0.51 | 0.51 | 59 | 1094.9 |
| 20260830073517 | 20 | 203 | 11.3 | 19.3 | 0.00 | 0.00 | 0.00 | 74 | 1015.8 |
| 20260830073515 | 21 | 229 | 6.4 | 6.4 | 0.00 | 0.51 | 0.51 | 58 | 1094.2 |
| 20260830072517 | 18 | 158 | 8.0 | 16.1 | 0.00 | 0.00 | 0.00 | 76 | 1015.6 |
| 20260830072515 | 21 | 226 | 6.4 | 8.0 | 0.00 | 0.51 | 0.51 | 58 | 1093.4 |
| 20260830071537 | 18 | 158 | 8.0 | 16.1 | 0.00 | 0.00 | 0.00 | 76 | 1015.6 |
| 20260830071515 | 21 | 222 | 6.4 | 8.0 | 0.00 | 0.51 | 0.51 | 57 | 1092.7 |
| 20260830070517 | 18 | 158 | 6.4 | 12.9 | 0.00 | 0.00 | 0.00 | 77 | 1015.6 |
| 20260830070515 | 21 | 218 | 6.4 | 8.0 | 0.00 | 0.51 | 0.51 | 56 | 1091.9 |
| 20260830065517 | 18 | 158 | 8.0 | 12.9 | 0.00 | 0.00 | 0.00 | 78 | 1015.5 |
| 20260830065515 | 21 | 214 | 6.4 | 8.0 | 0.00 | 0.51 | 0.51 | 56 | 1091.2 |
| 20260830064517 | 18 | 203 | 3.2 | 6.4 | 0.00 | 0.00 | 0.00 | 78 | 1015.5 |
| 20260830064515 | 21 | 210 | 6.4 | 8.0 | 0.00 | 0.51 | 0.51 | 55 | 1090.4 |
| 20260830063517 | 17 | 158 | 4.8 | 11.3 | 0.00 | 0.00 | 0.00 | 78 | 1015.5 |
| 20260830063515 | 20 | 206 | 6.4 | 8.0 | 0.00 | 0.51 | 0.51 | 54 | 1089.6 |
| 20260830062517 | 17 | 158 | 4.8 | 9.7 | 0.00 | 0.00 | 0.00 | 78 | 1015.4 |
| 20260830062515 | 20 | 203 | 6.4 | 8.0 | 0.00 | 0.51 | 0.51 | 54 | 1088.9 |
| 20260830061517 | 17 | 158 | 6.4 | 12.9 | 0.00 | 0.00 | 0.00 | 78 | 1015.6 |
| 20260830061515 | 20 | 199 | 6.4 | 8.0 | 0.00 | 0.51 | 0.51 | 53 | 1088.1 |
| 20260830060517 | 17 | 203 | 4.8 | 9.7 | 0.00 | 0.00 | 0.00 | 79 | 1015.6 |
| 20260830060515 | 20 | 195 | 8.0 | 9.7 | 0.00 | 0.51 | 0.51 | 52 | 1087.3 |
| 20260830055517 | 17 | 158 | 6.4 | 11.3 | 0.00 | 0.00 | 0.00 | 79 | 1015.4 |
| 20260830055515 | 20 | 191 | 8.0 | 9.7 | 0.00 | 0.51 | 0.51 | 52 | 1086.5 |
| 20260830054517 | 17 | 158 | 6.4 | 9.7 | 0.00 | 0.00 | 0.00 | 79 | 1015.5 |
| 20260830054515 | 20 | 187 | 8.0 | 9.7 | 0.00 | 0.51 | 0.51 | 51 | 1085.8 |
| 20260830053537 | 17 | 158 | 6.4 | 9.7 | 0.00 | 0.00 | 0.00 | 79 | 1015.5 |
| 20260830053535 | 20 | 183 | 8.0 | 9.7 | 0.00 | 0.51 | 0.51 | 50 | 1085.0 |
| 20260830052535 | 19 | 179 | 8.0 | 9.7 | 0.00 | 0.51 | 0.51 | 50 | 1084.2 |
| 20260830052517 | 17 | 158 | 4.8 | 8.0 | 0.00 | 0.00 | 0.00 | 79 | 1015.5 |
| 20260830051517 | 16 | 158 | 4.8 | 9.7 | 0.00 | 0.00 | 0.00 | 79 | 1015.5 |
| 20260830051515 | 19 | 175 | 8.0 | 9.7 | 0.00 | 0.51 | 0.51 | 49 | 1083.4 |
| 20260830050517 | 16 | 158 | 4.8 | 8.0 | 0.00 | 0.00 | 0.00 | 80 | 1015.4 |
| 20260830050515 | 18 | 171 | 8.0 | 9.7 | 0.00 | 0.51 | 0.51 | 49 | 1082.7 |
| 20260830045520 | 16 | 158 | 4.8 | 8.0 | 0.00 | 0.00 | 0.00 | 80 | 1015.5 |
| 20260830045515 | 18 | 167 | 8.0 | 9.7 | 0.00 | 0.51 | 0.51 | 48 | 1081.9 |
| 20260830044517 | 16 | 158 | 4.8 | 8.0 | 0.00 | 0.00 | 0.00 | 80 | 1015.6 |
| 20260830044515 | 18 | 163 | 8.0 | 11.3 | 0.00 | 0.51 | 0.51 | 47 | 1081.1 |
| 20260830043517 | 16 | 158 | 6.4 | 8.0 | 0.00 | 0.00 | 0.00 | 80 | 1015.5 |
| 20260830043515 | 18 | 159 | 9.7 | 11.3 | 0.00 | 0.51 | 0.51 | 47 | 1080.3 |